^^
Saratoga-Weather Station Historical Data
Daily Summary for February 25, 2021 Units:  Metric    English   Both
Daily Weekly Monthly Yearly Custom
  High: Low: Average:
Temperature: 14.7 °C 7.2 °C 9.7 °C
Dew Point: 8.5 °C 5.6 °C 6.9 °C
Humidity: 93% 58% 84%
Wind Speed: 25.9km/h 0km/h 6.1km/h
Wind Gust: 33.8km/h - -
Wind- - WSW
Pressure: 1018.0 hPa 1011.9 hPa -
Precipitation: 7.9 mm    
Historical Graphs
 
 
Tabular Data for February 25, 2021
Time Temperature Dew Point Pressure Wind Wind Speed Wind Gust Humidity Rainfall Rate (Hourly) solar
00:00 7.4 °C 5.9 °C 1011.9 hPa WNW 1.4 km/h 4.8 km/h 90% 0.0 mm 0 W/m2
00:05 7.4 °C 5.7 °C 1011.9 hPa Calm   9.7 km/h 89% 0.0 mm 0 W/m2
00:10 7.4 °C 5.9 °C 1011.9 hPa NW 1.4 km/h 1.6 km/h 90% 0.0 mm 0 W/m2
00:15 7.4 °C 5.9 °C 1011.9 hPa NE 4.7 km/h 6.4 km/h 90% 0.0 mm 0 W/m2
00:20 7.3 °C 5.6 °C 1012.2 hPa NW 1.4 km/h 12.9 km/h 89% 0.0 mm 0 W/m2
00:25 7.4 °C 5.9 °C 1012.2 hPa Calm   1.6 km/h 90% 0.0 mm 0 W/m2
00:30 7.3 °C 5.8 °C 1012.2 hPa NE 3.2 km/h 12.9 km/h 90% 0.0 mm 0 W/m2
00:35 7.4 °C 5.9 °C 1012.2 hPa NNE 6.4 km/h 6.4 km/h 90% 0.0 mm 0 W/m2
00:40 7.4 °C 5.9 °C 1012.2 hPa Calm   8 km/h 90% 0.0 mm 0 W/m2
00:45 7.4 °C 5.7 °C 1012.2 hPa East 4.7 km/h 4.8 km/h 89% 0.0 mm 0 W/m2
00:50 7.4 °C 5.7 °C 1012.2 hPa ENE 1.4 km/h 3.2 km/h 89% 0.0 mm 0 W/m2
00:55 7.4 °C 5.7 °C 1012.2 hPa Calm   3.2 km/h 89% 0.0 mm 0 W/m2
01:00 7.4 °C 5.9 °C 1012.2 hPa Calm     90% 0.0 mm 0 W/m2
01:05 7.4 °C 5.9 °C 1012.2 hPa WNW 1.4 km/h 4.8 km/h 90% 0.0 mm 0 W/m2
01:10 7.4 °C 5.9 °C 1012.2 hPa NW 1.4 km/h 4.8 km/h 90% 0.0 mm 0 W/m2
01:15 7.4 °C 5.9 °C 1012.5 hPa North 1.4 km/h 9.7 km/h 90% 0.0 mm 0 W/m2
01:20 7.5 °C 6 °C 1012.5 hPa North 1.4 km/h 3.2 km/h 90% 0.0 mm 0 W/m2
01:25 7.6 °C 6.1 °C 1012.5 hPa WNW 4.7 km/h 11.3 km/h 90% 0.0 mm 0 W/m2
01:30 7.6 °C 6.1 °C 1012.5 hPa NNW 1.4 km/h 11.3 km/h 90% 0.0 mm 0 W/m2
01:35 7.6 °C 6.1 °C 1012.5 hPa WSW 1.4 km/h 3.2 km/h 90% 0.0 mm 0 W/m2
01:40 7.7 °C 6.2 °C 1012.5 hPa SE 4.7 km/h 9.7 km/h 90% 0.0 mm 0 W/m2
01:45 7.7 °C 6.2 °C 1012.5 hPa Calm   3.2 km/h 90% 0.0 mm 0 W/m2
01:50 7.7 °C 6.2 °C 1012.5 hPa SSE 1.4 km/h 3.2 km/h 90% 0.0 mm 0 W/m2
01:55 7.7 °C 6.2 °C 1012.5 hPa WNW 4.7 km/h 6.4 km/h 90% 0.0 mm 0 W/m2
02:00 7.7 °C 6 °C 1012.5 hPa Calm   3.2 km/h 89% 0.0 mm 0 W/m2
02:05 7.7 °C 6 °C 1012.5 hPa West 1.4 km/h 14.5 km/h 89% 0.0 mm 0 W/m2
02:10 7.7 °C 6 °C 1012.5 hPa ENE 4.7 km/h 4.8 km/h 89% 0.0 mm 0 W/m2
02:15 7.8 °C 6.1 °C 1012.5 hPa West 14.3 km/h 14.5 km/h 89% 0.0 mm 0 W/m2
02:20 7.8 °C 5.9 °C 1012.5 hPa North 1.4 km/h 3.2 km/h 88% 0.0 mm 0 W/m2
02:25 7.8 °C 5.9 °C 1012.5 hPa WSW 1.4 km/h 9.7 km/h 88% 0.0 mm 0 W/m2
02:30 7.8 °C 5.9 °C 1012.9 hPa WNW 4.7 km/h 6.4 km/h 88% 0.0 mm 0 W/m2
02:35 7.8 °C 5.9 °C 1012.5 hPa West 9.7 km/h 9.7 km/h 88% 0.0 mm 0 W/m2
02:40 7.8 °C 5.9 °C 1012.5 hPa NE 4.7 km/h 4.8 km/h 88% 0.0 mm 0 W/m2
02:45 7.8 °C 5.9 °C 1012.5 hPa NW 1.4 km/h 6.4 km/h 88% 0.0 mm 0 W/m2
02:50 7.9 °C 6 °C 1012.9 hPa NNW 4.7 km/h 11.3 km/h 88% 0.0 mm 0 W/m2
02:55 7.9 °C 6 °C 1012.5 hPa North 1.4 km/h 6.4 km/h 88% 0.0 mm 0 W/m2
03:00 7.9 °C 6 °C 1012.5 hPa ENE 9.7 km/h 12.9 km/h 88% 0.0 mm 0 W/m2
03:05 7.9 °C 6 °C 1012.5 hPa NE 3.2 km/h 8 km/h 88% 0.0 mm 0 W/m2
03:10 7.9 °C 5.9 °C 1012.5 hPa NW 9.7 km/h 12.9 km/h 87% 0.0 mm 0 W/m2
03:15 7.9 °C 5.9 °C 1012.9 hPa West 3.2 km/h 4.8 km/h 87% 0.0 mm 0 W/m2
03:20 7.9 °C 5.9 °C 1012.5 hPa West 6.4 km/h 12.9 km/h 87% 0.0 mm 0 W/m2
03:25 7.9 °C 5.9 °C 1012.5 hPa NW 1.4 km/h 9.7 km/h 87% 0.0 mm 0 W/m2
03:30 7.9 °C 5.9 °C 1012.5 hPa SE 1.4 km/h 4.8 km/h 87% 0.0 mm 0 W/m2
03:35 8 °C 6 °C 1012.5 hPa NW 4.7 km/h 6.4 km/h 87% 0.0 mm 0 W/m2
03:40 8 °C 6 °C 1012.5 hPa NNW 1.4 km/h 11.3 km/h 87% 0.0 mm 0 W/m2
03:45 8 °C 6 °C 1012.5 hPa NW 1.4 km/h 4.8 km/h 87% 0.0 mm 0 W/m2
03:50 8 °C 5.8 °C 1012.5 hPa ENE 3.2 km/h 6.4 km/h 86% 0.0 mm 0 W/m2
03:55 7.9 °C 5.7 °C 1012.5 hPa SSE 3.2 km/h 9.7 km/h 86% 0.0 mm 0 W/m2
04:00 7.9 °C 5.9 °C 1012.5 hPa SW 3.2 km/h 8 km/h 87% 0.0 mm 0 W/m2
04:05 7.9 °C 5.9 °C 1012.5 hPa WNW 1.4 km/h 8 km/h 87% 0.0 mm 0 W/m2
04:10 7.8 °C 5.8 °C 1012.5 hPa WNW 11.1 km/h 14.5 km/h 87% 0.0 mm 0 W/m2
04:15 7.9 °C 5.9 °C 1012.5 hPa NW 6.4 km/h 8 km/h 87% 0.0 mm 0 W/m2
04:20 7.8 °C 5.8 °C 1012.5 hPa WNW 11.1 km/h 16.1 km/h 87% 0.0 mm 0 W/m2
04:25 7.8 °C 5.8 °C 1012.5 hPa WNW 4.7 km/h 11.3 km/h 87% 0.0 mm 0 W/m2
04:30 7.8 °C 5.8 °C 1012.5 hPa WNW 4.7 km/h 12.9 km/h 87% 0.0 mm 0 W/m2
04:35 7.8 °C 5.8 °C 1012.9 hPa SW 13 km/h 16.1 km/h 87% 0.0 mm 0 W/m2
04:40 7.7 °C 5.8 °C 1012.9 hPa WNW 11.1 km/h 12.9 km/h 88% 0.2 mm 0 W/m2
04:45 7.6 °C 5.9 °C 1012.9 hPa NW 3.2 km/h 8 km/h 89% 0.2 mm 0 W/m2
04:50 7.6 °C 5.9 °C 1012.9 hPa SSW 6.4 km/h 8 km/h 89% 0.2 mm 0 W/m2
04:55 7.5 °C 5.8 °C 1012.9 hPa NNW 4.7 km/h 4.8 km/h 89% 0.2 mm 0 W/m2
05:00 7.5 °C 6 °C 1012.9 hPa NNW 3.2 km/h 8 km/h 90% 0.5 mm 0 W/m2
05:05 7.5 °C 6 °C 1012.9 hPa SSW 3.2 km/h 6.4 km/h 90% 0.5 mm 0 W/m2
05:10 7.5 °C 6 °C 1012.9 hPa WNW 3.2 km/h 11.3 km/h 90% 0.5 mm 0 W/m2
05:15 7.5 °C 6 °C 1012.9 hPa NNW 6.4 km/h 8 km/h 90% 0.5 mm 0 W/m2
05:20 7.5 °C 6 °C 1012.9 hPa WNW 6.4 km/h 9.7 km/h 90% 0.5 mm 0 W/m2
05:25 7.5 °C 6 °C 1012.9 hPa North 1.4 km/h 6.4 km/h 90% 0.5 mm 0 W/m2
05:30 7.5 °C 6 °C 1012.9 hPa NW 3.2 km/h 11.3 km/h 90% 0.5 mm 0 W/m2
05:35 7.5 °C 6 °C 1012.9 hPa North 4.7 km/h 16.1 km/h 90% 0.5 mm 0 W/m2
05:40 7.4 °C 5.9 °C 1012.9 hPa Calm   17.7 km/h 90% 0.2 mm 0 W/m2
05:45 7.4 °C 5.9 °C 1012.9 hPa WNW 6.4 km/h 11.3 km/h 90% 0.2 mm 0 W/m2
05:50 7.4 °C 5.9 °C 1013.2 hPa North 3.2 km/h 16.1 km/h 90% 0.2 mm 0 W/m2
05:55 7.4 °C 5.9 °C 1013.2 hPa West 3.2 km/h 11.3 km/h 90% 0.2 mm 0 W/m2
06:00 7.3 °C 5.8 °C 1013.2 hPa WSW 4.7 km/h 16.1 km/h 90% 0.0 mm 0 W/m2
06:05 7.3 °C 5.8 °C 1013.2 hPa NW 7.9 km/h 12.9 km/h 90% 0.0 mm 0 W/m2
06:10 7.3 °C 5.8 °C 1013.2 hPa North 1.4 km/h 20.9 km/h 90% 0.0 mm 7 W/m2
06:15 7.3 °C 5.8 °C 1013.2 hPa NNE 6.4 km/h 12.9 km/h 90% 0.0 mm 9 W/m2
06:21 7.3 °C 5.8 °C 1013.2 hPa West 3.2 km/h 14.5 km/h 90% 0.0 mm 5 W/m2
06:26 7.3 °C 5.9 °C 1013.5 hPa NW 6.4 km/h 9.7 km/h 91% 0.0 mm 5 W/m2
06:31 7.2 °C 5.8 °C 1013.5 hPa NW 6.4 km/h 8 km/h 91% 0.0 mm 5 W/m2
06:36 7.2 °C 5.8 °C 1013.5 hPa South 1.4 km/h 14.5 km/h 91% 0.0 mm 9 W/m2
06:41 7.3 °C 5.9 °C 1013.5 hPa West 6.4 km/h 17.7 km/h 91% 0.0 mm 14 W/m2
06:46 7.3 °C 5.9 °C 1013.5 hPa NW 4.7 km/h 12.9 km/h 91% 0.2 mm 5 W/m2
06:51 7.3 °C 5.8 °C 1013.5 hPa West 4.7 km/h 14.5 km/h 90% 0.2 mm 18 W/m2
06:56 7.3 °C 5.9 °C 1013.9 hPa West 14.3 km/h 20.9 km/h 91% 0.2 mm 25 W/m2
07:01 7.2 °C 5.8 °C 1013.9 hPa West 11.1 km/h 11.3 km/h 91% 0.5 mm 12 W/m2
07:06 7.2 °C 5.8 °C 1013.9 hPa NW 4.7 km/h 20.9 km/h 91% 0.5 mm 12 W/m2
07:11 7.2 °C 5.8 °C 1013.9 hPa NNW 4.7 km/h 12.9 km/h 91% 0.5 mm 11 W/m2
07:16 7.2 °C 5.8 °C 1014.2 hPa WNW 14.3 km/h 27.4 km/h 91% 0.5 mm 40 W/m2
07:21 7.2 °C 5.8 °C 1014.2 hPa West 3.2 km/h 17.7 km/h 91% 0.5 mm 46 W/m2
07:26 7.3 °C 5.9 °C 1014.2 hPa NW 4.7 km/h 27.4 km/h 91% 0.5 mm 53 W/m2
07:31 7.3 °C 5.9 °C 1014.2 hPa WNW 1.4 km/h 16.1 km/h 91% 0.5 mm 77 W/m2
07:36 7.3 °C 5.9 °C 1014.2 hPa West 4.7 km/h 11.3 km/h 91% 0.5 mm 54 W/m2
07:41 7.4 °C 6 °C 1014.6 hPa SW 13 km/h 16.1 km/h 91% 0.5 mm 67 W/m2
07:46 7.3 °C 5.9 °C 1014.6 hPa West 6.4 km/h 14.5 km/h 91% 0.8 mm 32 W/m2
07:51 7.3 °C 5.9 °C 1014.6 hPa WSW 7.9 km/h 16.1 km/h 91% 0.8 mm 35 W/m2
07:56 7.3 °C 5.9 °C 1014.6 hPa West 9.7 km/h 12.9 km/h 91% 1.0 mm 26 W/m2
08:01 7.3 °C 6.1 °C 1014.6 hPa WNW 1.4 km/h 16.1 km/h 92% 1.0 mm 47 W/m2
08:06 7.3 °C 6.1 °C 1014.6 hPa WSW 6.4 km/h 12.9 km/h 92% 1.0 mm 37 W/m2
08:11 7.3 °C 6.1 °C 1014.9 hPa NW 3.2 km/h 24.1 km/h 92% 1.0 mm 37 W/m2
08:16 7.3 °C 6.1 °C 1014.9 hPa West 11.1 km/h 12.9 km/h 92% 1.0 mm 44 W/m2
08:21 7.3 °C 6.1 °C 1014.9 hPa WSW 3.2 km/h 25.7 km/h 92% 1.0 mm 37 W/m2
08:26 7.3 °C 5.9 °C 1014.9 hPa West 14.3 km/h 22.5 km/h 91% 1.0 mm 30 W/m2
08:31 7.3 °C 5.9 °C 1015.2 hPa WSW 7.9 km/h 25.7 km/h 91% 1.0 mm 130 W/m2
08:36 7.4 °C 6 °C 1015.2 hPa NNW 3.2 km/h 17.7 km/h 91% 1.0 mm 193 W/m2
08:41 7.5 °C 6.1 °C 1015.2 hPa NW 13 km/h 19.3 km/h 91% 1.3 mm 69 W/m2
08:46 7.5 °C 6.1 °C 1015.2 hPa North 6.4 km/h 17.7 km/h 91% 1.0 mm 79 W/m2
08:51 7.4 °C 6.2 °C 1015.2 hPa WSW 11.1 km/h 11.3 km/h 92% 1.3 mm 74 W/m2
08:56 7.4 °C 6.2 °C 1015.6 hPa SW 4.7 km/h 9.7 km/h 92% 1.3 mm 60 W/m2
09:01 7.4 °C 6.2 °C 1015.6 hPa West 9.7 km/h 9.7 km/h 92% 1.0 mm 90 W/m2
09:06 7.6 °C 6.4 °C 1015.6 hPa West 13 km/h 14.5 km/h 92% 1.0 mm 139 W/m2
09:11 7.7 °C 6.5 °C 1015.6 hPa West 4.7 km/h 19.3 km/h 92% 1.0 mm 132 W/m2
09:16 7.7 °C 6.5 °C 1015.6 hPa WNW 6.4 km/h 14.5 km/h 92% 1.3 mm 135 W/m2
09:21 7.8 °C 6.6 °C 1015.9 hPa ENE 4.7 km/h 19.3 km/h 92% 1.5 mm 100 W/m2
09:26 7.8 °C 6.6 °C 1015.9 hPa WNW 4.7 km/h 12.9 km/h 92% 1.5 mm 70 W/m2
09:31 7.8 °C 6.6 °C 1015.9 hPa West 6.4 km/h 12.9 km/h 92% 1.5 mm 72 W/m2
09:36 7.9 °C 6.7 °C 1016.3 hPa West 11.1 km/h 14.5 km/h 92% 1.8 mm 127 W/m2
09:41 7.9 °C 6.7 °C 1016.3 hPa West 13 km/h 25.7 km/h 92% 1.8 mm 195 W/m2
09:46 8 °C 6.8 °C 1016.3 hPa WNW 11.1 km/h 27.4 km/h 92% 1.8 mm 98 W/m2
09:51 8.1 °C 6.9 °C 1016.3 hPa NW 25.9 km/h 25.7 km/h 92% 1.5 mm 167 W/m2
09:56 8.2 °C 7 °C 1016.3 hPa West 6.4 km/h 16.1 km/h 92% 1.5 mm 299 W/m2
10:01 8.4 °C 7.2 °C 1016.3 hPa WSW 13 km/h 25.7 km/h 92% 1.5 mm 114 W/m2
10:06 8.4 °C 7 °C 1016.6 hPa West 9.7 km/h 19.3 km/h 91% 1.5 mm 104 W/m2
10:11 8.4 °C 7 °C 1016.6 hPa WSW 6.4 km/h 12.9 km/h 91% 1.3 mm 63 W/m2
10:16 8.4 °C 7 °C 1016.6 hPa West 6.4 km/h 16.1 km/h 91% 1.0 mm 65 W/m2
10:21 8.4 °C 7 °C 1016.6 hPa NW 7.9 km/h 16.1 km/h 91% 0.8 mm 93 W/m2
10:26 8.4 °C 7 °C 1016.9 hPa NW 4.7 km/h 11.3 km/h 91% 0.8 mm 58 W/m2
10:31 8.4 °C 7 °C 1016.9 hPa WNW 7.9 km/h 14.5 km/h 91% 0.8 mm 93 W/m2
10:36 8.4 °C 7 °C 1016.9 hPa West 17.7 km/h 19.3 km/h 91% 0.5 mm 127 W/m2
10:41 8.6 °C 7.2 °C 1016.9 hPa WNW 11.1 km/h 11.3 km/h 91% 0.5 mm 139 W/m2
10:46 8.7 °C 7.2 °C 1017.3 hPa WNW 3.2 km/h 20.9 km/h 90% 0.5 mm 218 W/m2
10:51 8.9 °C 7.5 °C 1017.3 hPa West 9.7 km/h 14.5 km/h 91% 0.5 mm 248 W/m2
10:56 9.1 °C 7.5 °C 1017.3 hPa SSE 3.2 km/h 14.5 km/h 90% 0.5 mm 262 W/m2
11:01 9.2 °C 7.6 °C 1017.3 hPa NNW 7.9 km/h 20.9 km/h 90% 0.5 mm 338 W/m2
11:06 9.4 °C 7.8 °C 1017.3 hPa WNW 4.7 km/h 17.7 km/h 90% 0.5 mm 346 W/m2
11:11 9.6 °C 7.9 °C 1017.3 hPa NW 4.7 km/h 12.9 km/h 89% 0.5 mm 346 W/m2
11:16 9.9 °C 8.2 °C 1017.3 hPa West 9.7 km/h 12.9 km/h 89% 0.5 mm 290 W/m2
11:21 10.1 °C 8 °C 1017.3 hPa West 11.1 km/h 22.5 km/h 87% 0.5 mm 301 W/m2
11:26 10.4 °C 8.3 °C 1017.3 hPa NNW 9.7 km/h 9.7 km/h 87% 0.2 mm 209 W/m2
11:31 10.6 °C 8.2 °C 1017.3 hPa NW 4.7 km/h 20.9 km/h 85% 0.2 mm 838 W/m2
11:36 10.9 °C 8.5 °C 1017.3 hPa West 9.7 km/h 14.5 km/h 85% 0.0 mm 345 W/m2
11:41 11.2 °C 8.4 °C 1017.6 hPa WSW 3.2 km/h 33.8 km/h 83% 0.0 mm 962 W/m2
11:46 11 °C 8 °C 1017.6 hPa WSW 4.7 km/h 22.5 km/h 82% 0.0 mm 276 W/m2
11:51 10.8 °C 7.9 °C 1017.6 hPa NNE 4.7 km/h 33.8 km/h 82% 0.0 mm 362 W/m2
11:56 10.8 °C 7.9 °C 1017.3 hPa NNW 14.3 km/h 14.5 km/h 82% 0.0 mm 343 W/m2
12:01 10.9 °C 7.9 °C 1017.6 hPa WNW 6.4 km/h 17.7 km/h 82% 0.0 mm 754 W/m2
12:06 11.2 °C 8.2 °C 1017.6 hPa WSW 7.9 km/h 16.1 km/h 82% 0.0 mm 508 W/m2
12:11 11.4 °C 8.1 °C 1017.6 hPa WNW 13 km/h 19.3 km/h 80% 0.0 mm 826 W/m2
12:16 11.6 °C 8.1 °C 1017.6 hPa NW 13 km/h 16.1 km/h 79% 0.0 mm 281 W/m2
12:21 11.6 °C 7.7 °C 1017.6 hPa NW 7.9 km/h 19.3 km/h 77% 0.0 mm 294 W/m2
12:26 11.6 °C 7.9 °C 1017.6 hPa WNW 7.9 km/h 16.1 km/h 78% 0.0 mm 322 W/m2
12:31 11.8 °C 8.1 °C 1017.6 hPa West 9.7 km/h 11.3 km/h 78% 0.0 mm 881 W/m2
12:36 12.1 °C 8.2 °C 1017.6 hPa WSW 14.3 km/h 17.7 km/h 77% 0.0 mm 381 W/m2
12:41 12.3 °C 8 °C 1017.6 hPa North 4.7 km/h 16.1 km/h 75% 0.0 mm 898 W/m2
12:46 12.5 °C 7.4 °C 1017.6 hPa WNW 22.7 km/h 30.6 km/h 71% 0.0 mm 515 W/m2
12:51 12.7 °C 8.2 °C 1017.6 hPa WNW 24.1 km/h 24.1 km/h 74% 0.0 mm 1055 W/m2
12:56 12.9 °C 7.8 °C 1018.0 hPa West 6.4 km/h 30.6 km/h 71% 0.0 mm 1055 W/m2
13:01 12.9 °C 7.8 °C 1017.6 hPa NNW 6.4 km/h 12.9 km/h 71% 0.0 mm 860 W/m2
13:06 13.1 °C 7.8 °C 1017.6 hPa NW 24.1 km/h 24.1 km/h 70% 0.0 mm 1034 W/m2
13:11 13.1 °C 7.3 °C 1018.0 hPa NNE 6.4 km/h 16.1 km/h 68% 0.0 mm 251 W/m2
13:16 12.8 °C 7.3 °C 1018.0 hPa North 3.2 km/h 29 km/h 69% 0.0 mm 329 W/m2
13:22 12.9 °C 7.1 °C 1017.6 hPa WNW 9.7 km/h 25.7 km/h 68% 0.0 mm 969 W/m2
13:27 13.2 °C 7.4 °C 1017.6 hPa West 13 km/h 25.7 km/h 68% 0.0 mm 364 W/m2
13:32 13.2 °C 6.8 °C 1018.0 hPa NW 3.2 km/h 24.1 km/h 65% 0.0 mm 404 W/m2
13:37 13.2 °C 6.8 °C 1017.6 hPa WNW 16.3 km/h 33.8 km/h 65% 0.0 mm 1030 W/m2
13:42 13.4 °C 7.4 °C 1017.6 hPa West 11.1 km/h 20.9 km/h 67% 0.0 mm 1018 W/m2
13:47 13.8 °C 7.6 °C 1018.0 hPa WNW 11.1 km/h 33.8 km/h 66% 0.0 mm 983 W/m2
13:52 14 °C 6.4 °C 1018.0 hPa West 16.3 km/h 29 km/h 60% 0.0 mm 1086 W/m2
13:57 13.8 °C 6.4 °C 1017.6 hPa WNW 4.7 km/h 16.1 km/h 61% 0.0 mm 234 W/m2
14:02 13.7 °C 5.8 °C 1018.0 hPa WNW 11.1 km/h 27.4 km/h 59% 0.0 mm 1034 W/m2
14:07 13.9 °C 6 °C 1017.6 hPa NW 6.4 km/h 22.5 km/h 59% 0.0 mm 884 W/m2
14:12 14 °C 5.9 °C 1017.6 hPa WNW 13 km/h 17.7 km/h 58% 0.0 mm 1065 W/m2
14:17 14.2 °C 6.3 °C 1017.6 hPa SW 3.2 km/h 19.3 km/h 59% 0.0 mm 1151 W/m2
14:22 14.3 °C 6.6 °C 1017.6 hPa SW 3.2 km/h 16.1 km/h 60% 0.0 mm 341 W/m2
14:27 14.3 °C 6.9 °C 1017.6 hPa West 3.2 km/h 12.9 km/h 61% 0.0 mm 341 W/m2
14:32 14.5 °C 7.1 °C 1017.6 hPa SW 7.9 km/h 17.7 km/h 61% 0.0 mm 946 W/m2
14:37 14.4 °C 6.7 °C 1017.6 hPa SSE 13 km/h 25.7 km/h 60% 0.0 mm 800 W/m2
14:42 14.2 °C 6.8 °C 1017.3 hPa WNW 6.4 km/h 20.9 km/h 61% 0.0 mm 236 W/m2
14:47 13.9 °C 6.7 °C 1017.3 hPa WNW 4.7 km/h 25.7 km/h 62% 0.0 mm 323 W/m2
14:52 14 °C 6.8 °C 1017.3 hPa West 9.7 km/h 24.1 km/h 62% 0.0 mm 323 W/m2
14:57 13.9 °C 6.5 °C 1017.3 hPa West 14.3 km/h 32.2 km/h 61% 0.0 mm 512 W/m2
15:02 14.1 °C 7.2 °C 1017.3 hPa WNW 7.9 km/h 24.1 km/h 63% 0.0 mm 501 W/m2
15:07 14.2 °C 6.8 °C 1017.6 hPa West 13 km/h 32.2 km/h 61% 0.0 mm 1176 W/m2
15:12 14.3 °C 6.6 °C 1017.3 hPa North 14.3 km/h 19.3 km/h 60% 0.0 mm 1176 W/m2
15:17 14.3 °C 6.9 °C 1017.3 hPa WNW 6.4 km/h 22.5 km/h 61% 0.0 mm 466 W/m2
15:22 14.1 °C 6.7 °C 1017.3 hPa WSW 11.1 km/h 16.1 km/h 61% 0.0 mm 223 W/m2
15:27 13.9 °C 6.7 °C 1017.3 hPa NNW 3.2 km/h 16.1 km/h 62% 0.0 mm 387 W/m2
15:32 14.1 °C 6.9 °C 1017.3 hPa WSW 13 km/h 12.9 km/h 62% 0.0 mm 805 W/m2
15:37 14.4 °C 7.2 °C 1017.3 hPa West 3.2 km/h 14.5 km/h 62% 0.0 mm 316 W/m2
15:42 14.2 °C 6.5 °C 1017.3 hPa WSW 7.9 km/h 17.7 km/h 60% 0.0 mm 234 W/m2
15:47 14.2 °C 6.5 °C 1016.9 hPa NNW 13 km/h 17.7 km/h 60% 0.0 mm 809 W/m2
15:52 14.5 °C 7.3 °C 1016.9 hPa NW 14.3 km/h 14.5 km/h 62% 0.0 mm 684 W/m2
15:57 14.7 °C 6.5 °C 1016.9 hPa West 13 km/h 16.1 km/h 58% 0.0 mm 682 W/m2
16:02 14.7 °C 6.8 °C 1016.9 hPa NNW 13 km/h 19.3 km/h 59% 0.0 mm 216 W/m2
16:07 14.4 °C 6.5 °C 1016.9 hPa WNW 4.7 km/h 19.3 km/h 59% 0.0 mm 160 W/m2
16:12 14.2 °C 6.5 °C 1017.3 hPa NW 7.9 km/h 16.1 km/h 60% 0.0 mm 141 W/m2
16:17 13.8 °C 6.6 °C 1017.3 hPa WNW 4.7 km/h 17.7 km/h 62% 0.0 mm 76 W/m2
16:22 13.4 °C 7 °C 1017.3 hPa WNW 7.9 km/h 12.9 km/h 65% 0.0 mm 86 W/m2
16:27 13.1 °C 7.3 °C 1017.3 hPa NW 4.7 km/h 11.3 km/h 68% 0.0 mm 195 W/m2
16:32 12.8 °C 7.7 °C 1017.3 hPa West 13 km/h 12.9 km/h 71% 0.0 mm 255 W/m2
16:37 12.5 °C 7.4 °C 1017.3 hPa WSW 7.9 km/h 19.3 km/h 71% 0.0 mm 359 W/m2
16:42 12.3 °C 7.8 °C 1017.3 hPa West 9.7 km/h 14.5 km/h 74% 0.0 mm 234 W/m2
16:47 12.1 °C 7.6 °C 1017.3 hPa NW 6.4 km/h 19.3 km/h 74% 0.0 mm 142 W/m2
16:52 11.9 °C 7.8 °C 1017.3 hPa WNW 13 km/h 19.3 km/h 76% 0.0 mm 86 W/m2
16:57 11.7 °C 7.8 °C 1017.6 hPa WNW 14.3 km/h 14.5 km/h 77% 0.0 mm 97 W/m2
17:02 11.4 °C 7.9 °C 1017.6 hPa West 16.3 km/h 25.7 km/h 79% 0.2 mm 67 W/m2
17:07 11.1 °C 7.8 °C 1017.6 hPa WNW 13 km/h 24.1 km/h 80% 0.2 mm 81 W/m2
17:12 10.9 °C 7.8 °C 1017.6 hPa SW 4.7 km/h 22.5 km/h 81% 0.2 mm 90 W/m2
17:17 10.8 °C 7.9 °C 1017.3 hPa NW 3.2 km/h 16.1 km/h 82% 0.2 mm 221 W/m2
17:22 10.8 °C 7.7 °C 1017.3 hPa NW 3.2 km/h 22.5 km/h 81% 0.2 mm 288 W/m2
17:27 11.1 °C 7.8 °C 1017.3 hPa NNE 3.2 km/h 11.3 km/h 80% 0.2 mm 179 W/m2
17:32 11.3 °C 7.8 °C 1017.3 hPa Calm   14.5 km/h 79% 0.2 mm 239 W/m2
17:37 11.5 °C 7.8 °C 1017.3 hPa NNW 9.7 km/h 16.1 km/h 78% 0.2 mm 279 W/m2
17:42 11.8 °C 8.1 °C 1016.9 hPa East 6.4 km/h 6.4 km/h 78% 0.2 mm 276 W/m2
17:47 12.1 °C 8.2 °C 1016.9 hPa WNW 3.2 km/h 16.1 km/h 77% 0.2 mm 216 W/m2
17:52 12.5 °C 8.2 °C 1016.9 hPa NW 1.4 km/h 6.4 km/h 75% 0.2 mm 554 W/m2
17:57 13 °C 8.3 °C 1016.9 hPa WNW 11.1 km/h 14.5 km/h 73% 0.2 mm 527 W/m2
18:02 13.4 °C 8.2 °C 1016.9 hPa WNW 7.9 km/h 12.9 km/h 71% 0.0 mm 304 W/m2
18:07 13.7 °C 7.9 °C 1016.9 hPa SW 4.7 km/h 17.7 km/h 68% 0.0 mm 171 W/m2
18:12 13.8 °C 8 °C 1016.9 hPa SE 3.2 km/h 6.4 km/h 68% 0.0 mm 207 W/m2
18:17 13.7 °C 7.7 °C 1016.9 hPa East 1.4 km/h 19.3 km/h 67% 0.0 mm 114 W/m2
18:22 13.4 °C 7.6 °C 1016.9 hPa North 4.7 km/h 12.9 km/h 68% 0.0 mm 74 W/m2
18:27 13.3 °C 7.5 °C 1016.9 hPa SE 4.7 km/h 19.3 km/h 68% 0.0 mm 62 W/m2
18:32 13.2 °C 7.6 °C 1017.3 hPa West 11.1 km/h 16.1 km/h 69% 0.0 mm 18 W/m2
18:37 12 °C 8.3 °C 1017.6 hPa West 16.3 km/h 30.6 km/h 78% 0.8 mm 47 W/m2
18:42 10.8 °C 7.9 °C 1017.3 hPa West 6.4 km/h 12.9 km/h 82% 0.8 mm 76 W/m2
18:47 10.3 °C 7.7 °C 1016.9 hPa NW 7.9 km/h 11.3 km/h 84% 1.0 mm 105 W/m2
18:52 10.1 °C 7.7 °C 1017.3 hPa NW 9.7 km/h 12.9 km/h 85% 1.0 mm 172 W/m2
18:57 10.2 °C 8 °C 1017.3 hPa WSW 6.4 km/h 9.7 km/h 86% 1.0 mm 192 W/m2
19:02 10.3 °C 7.9 °C 1017.3 hPa ENE 3.2 km/h 3.2 km/h 85% 1.0 mm 148 W/m2
19:07 10.4 °C 7.8 °C 1017.3 hPa WSW 3.2 km/h 8 km/h 84% 1.0 mm 127 W/m2
19:12 10.6 °C 8.2 °C 1017.3 hPa Calm   3.2 km/h 85% 1.0 mm 97 W/m2
19:17 10.6 °C 8.2 °C 1016.9 hPa NW 1.4 km/h 9.7 km/h 85% 1.0 mm 70 W/m2
19:22 10.5 °C 8.1 °C 1016.9 hPa NW 4.7 km/h 8 km/h 85% 1.0 mm 123 W/m2
19:27 10.5 °C 8.1 °C 1016.9 hPa West 1.4 km/h 6.4 km/h 85% 1.0 mm 53 W/m2
19:32 10.5 °C 8.3 °C 1016.9 hPa West 4.7 km/h 8 km/h 86% 1.0 mm 42 W/m2
19:37 10.5 °C 8.3 °C 1016.9 hPa WNW 4.7 km/h 4.8 km/h 86% 0.2 mm 100 W/m2
19:42 10.6 °C 8.4 °C 1016.9 hPa WSW 3.2 km/h 6.4 km/h 86% 0.2 mm 35 W/m2
19:47 10.7 °C 8.5 °C 1016.9 hPa WNW 1.4 km/h 3.2 km/h 86% 0.0 mm 32 W/m2
19:52 10.7 °C 8.5 °C 1017.3 hPa Calm   3.2 km/h 86% 0.0 mm 18 W/m2
19:57 10.7 °C 8.5 °C 1017.3 hPa Calm   3.2 km/h 86% 0.0 mm 28 W/m2
20:02 10.6 °C 8.5 °C 1017.3 hPa Calm   3.2 km/h 87% 0.0 mm 35 W/m2
20:07 10.6 °C 8.5 °C 1017.3 hPa West 1.4 km/h 4.8 km/h 87% 0.0 mm 33 W/m2
20:12 10.6 °C 8.5 °C 1017.3 hPa NW 3.2 km/h 4.8 km/h 87% 0.0 mm 11 W/m2
20:17 10.6 °C 8.5 °C 1017.6 hPa West 9.7 km/h 11.3 km/h 87% 0.0 mm 0 W/m2
20:22 10.4 °C 8.3 °C 1017.6 hPa WSW 6.4 km/h 24.1 km/h 87% 0.5 mm 5 W/m2
20:27 10 °C 7.9 °C 1018.0 hPa WSW 6.4 km/h 14.5 km/h 87% 0.8 mm 5 W/m2
20:32 9.7 °C 7.8 °C 1018.0 hPa West 6.4 km/h 22.5 km/h 88% 1.3 mm 5 W/m2
20:37 9.4 °C 7.7 °C 1017.6 hPa WNW 7.9 km/h 19.3 km/h 89% 1.5 mm 7 W/m2
20:42 9.3 °C 7.6 °C 1018.0 hPa West 3.2 km/h 9.7 km/h 89% 1.5 mm 5 W/m2
20:47 9.3 °C 7.7 °C 1017.6 hPa West 6.4 km/h 14.5 km/h 90% 1.8 mm 7 W/m2
20:52 9.2 °C 7.6 °C 1017.6 hPa WSW 6.4 km/h 6.4 km/h 90% 2.0 mm 7 W/m2
20:57 9.2 °C 7.6 °C 1017.6 hPa South 1.4 km/h 14.5 km/h 90% 2.0 mm 7 W/m2
21:02 9.2 °C 7.8 °C 1017.6 hPa NNW 3.2 km/h 3.2 km/h 91% 2.0 mm 5 W/m2
21:07 9.3 °C 7.9 °C 1017.6 hPa WNW 4.7 km/h 6.4 km/h 91% 2.3 mm 0 W/m2
21:12 9.4 °C 7.8 °C 1017.6 hPa WNW 4.7 km/h 11.3 km/h 90% 2.3 mm 0 W/m2
21:17 9.4 °C 7.8 °C 1017.6 hPa WSW 9.7 km/h 12.9 km/h 90% 2.3 mm 0 W/m2
21:22 9.6 °C 8 °C 1017.6 hPa West 6.4 km/h 6.4 km/h 90% 1.5 mm 0 W/m2
21:27 9.6 °C 7.9 °C 1017.6 hPa NW 16.3 km/h 16.1 km/h 89% 1.5 mm 0 W/m2
21:32 9.7 °C 8 °C 1017.6 hPa NW 3.2 km/h 3.2 km/h 89% 1.0 mm 0 W/m2
21:37 9.8 °C 7.9 °C 1017.6 hPa SW 4.7 km/h 14.5 km/h 88% 0.8 mm 0 W/m2
21:42 9.8 °C 7.9 °C 1017.6 hPa West 1.4 km/h 6.4 km/h 88% 0.5 mm 0 W/m2
21:47 9.8 °C 7.9 °C 1017.6 hPa Calm     88% 0.5 mm 0 W/m2
21:52 9.8 °C 7.9 °C 1017.6 hPa NNE 3.2 km/h 3.2 km/h 88% 0.2 mm 0 W/m2
21:57 9.7 °C 8 °C 1017.6 hPa NE 1.4 km/h 3.2 km/h 89% 0.2 mm 0 W/m2
22:02 9.6 °C 8 °C 1017.6 hPa NE 1.4 km/h 3.2 km/h 90% 0.2 mm 0 W/m2
22:07 9.4 °C 7.8 °C 1017.6 hPa NE 1.4 km/h 3.2 km/h 90% 0.0 mm 0 W/m2
22:12 9.4 °C 8 °C 1017.6 hPa Calm   1.6 km/h 91% 0.0 mm 0 W/m2
22:17 9.3 °C 8.1 °C 1017.6 hPa ESE 1.4 km/h 4.8 km/h 92% 0.0 mm 0 W/m2
22:22 9.2 °C 7.8 °C 1017.6 hPa East 1.4 km/h 3.2 km/h 91% 0.0 mm 0 W/m2
22:27 9.2 °C 7.8 °C 1017.6 hPa Calm   1.6 km/h 91% 0.0 mm 0 W/m2
22:32 9.2 °C 8 °C 1017.6 hPa NE 1.4 km/h 1.6 km/h 92% 0.0 mm 0 W/m2
22:37 9.2 °C 8 °C 1017.6 hPa Calm   4.8 km/h 92% 0.0 mm 0 W/m2
22:42 9.1 °C 7.9 °C 1017.6 hPa SE 1.4 km/h 3.2 km/h 92% 0.0 mm 0 W/m2
22:47 9.1 °C 7.9 °C 1017.6 hPa Calm   4.8 km/h 92% 0.0 mm 0 W/m2
22:52 9 °C 7.8 °C 1017.3 hPa Calm   1.6 km/h 92% 0.0 mm 0 W/m2
22:57 9 °C 7.8 °C 1017.6 hPa Calm   1.6 km/h 92% 0.0 mm 0 W/m2
23:02 8.9 °C 7.7 °C 1017.3 hPa Calm   1.6 km/h 92% 0.0 mm 0 W/m2
23:08 8.8 °C 7.6 °C 1017.3 hPa Calm     92% 0.0 mm 0 W/m2
23:13 8.8 °C 7.6 °C 1017.3 hPa Calm   1.6 km/h 92% 0.0 mm 0 W/m2
23:18 8.7 °C 7.5 °C 1017.3 hPa Calm   1.6 km/h 92% 0.0 mm 0 W/m2
23:23 8.7 °C 7.6 °C 1017.3 hPa Calm   1.6 km/h 93% 0.0 mm 0 W/m2
23:28 8.7 °C 7.6 °C 1017.6 hPa West 9.7 km/h 9.7 km/h 93% 0.0 mm 0 W/m2
23:33 8.9 °C 7.8 °C 1018.0 hPa WSW 6.4 km/h 14.5 km/h 93% 0.0 mm 0 W/m2
23:38 9.1 °C 7.9 °C 1017.6 hPa WNW 3.2 km/h 12.9 km/h 92% 0.0 mm 0 W/m2
23:43 9.2 °C 7.8 °C 1017.6 hPa West 14.3 km/h 14.5 km/h 91% 0.0 mm 0 W/m2
23:48 9.2 °C 7.8 °C 1017.6 hPa WNW 1.4 km/h 9.7 km/h 91% 0.0 mm 0 W/m2
23:53 9.2 °C 7.8 °C 1017.6 hPa West 3.2 km/h 6.4 km/h 91% 0.0 mm 0 W/m2
23:58 9.1 °C 7.7 °C 1017.6 hPa SW 3.2 km/h 9.7 km/h 91% 0.0 mm 0 W/m2
Juneau County Weather
Compliments of Weather Underground - 4 mb